Tracking 30995 objects as of 5-Jul-2025
HD Live streaming from Space Station
objects crossing your sky now

BLOCK DM-SL R/B

Track BLOCK DM-SL R/B now!


NORAD ID: 29350
Int'l Code: 2006-034B
Perigee: 2,885.0 km
Apogee: 35,540.9 km
Inclination: 0.9 °
Period: 678.8 minutes
Semi major axis: 25583 km
RCS: 20.125 m2 (large)
Launch date: August 22, 2006
Source: Sea Launch (SEAL)
Launch site: SEA LAUNCH (SEAL)

Note: This is a ROCKET BODY
Your satellite tracking list
Your tracking list is empty




NASA's NSSDC Master Catalog

Two Line Element Set (TLE):
1 29350U 06034B   25186.57688061 -.00000058  00000-0  00000-0 0  9999
2 29350   0.8652  32.7748 6382094  18.1000  64.4554  2.12153783146264
Source of the keplerian elements: AFSPC